Regional Weather Roundup
Issued by NWS

Home | Current Version | Previous Version | Text Only | Print | Product List | Glossary On
Versions: 1 2 3 4 5 6 7 8 9 10 11 12 13 14 15 16 17 18 19 20 21 22 23 24 25 26 27 28 29 30 31 32 33 34 35 36 37 38 39 40 41 42 43 44 45 46 47 48 49 50
000
ASUS43 KLMK 051110
RWRKY
KENTUCKY REGIONAL WEATHER ROUNDUP
NATIONAL WEATHER SERVICE LOUISVILLE KY
700 AM EDT THU MAY 05 2016

NOTE "FAIR" INDICATES FEW OR NO CLOUDS BELOW 12,000 FEET
WITH NO SIGNIFICANT WEATHER AND/OR OBSTRUCTIONS TO VISIBILITY.

KYZ001>023-026-027-061>063-070>075-051200-
WESTERN AND SOUTH CENTRAL KENTUCKY

CITY           SKY/WX    TMP DP  RH WIND       PRES   REMARKS
PADUCAH        CLEAR     46  40  79 W6        29.84R
HENDERSON      CLEAR     48  39  71 W9        29.81R
OWENSBORO      CLEAR     48  44  86 NW9       29.80R
HOPKINSVILLE   CLEAR     45  42  90 W8        29.81R
BOWLING GREEN  CLOUDY    48  42  80 CALM      29.79R
GLASGOW        CLOUDY    43  43 100 SW5       29.77F
$$

KYZ024-025-028>034-038-045-046-053-051200-
NORTH CENTRAL KENTUCKY

CITY           SKY/WX    TMP DP  RH WIND       PRES   REMARKS
LOUISVILLE/SDF LGT RAIN  46  40  79 N9        29.77R
LOUISVILLE/LOU LGT RAIN  45  40  82 NW6       29.77R
FORT KNOX      CLOUDY    45  45 100 MISG      29.74R
$$

KYZ035>037-039>044-047>052-055>060-089>105-051200-
NORTHEAST KENTUCKY

CITY           SKY/WX    TMP DP  RH WIND       PRES   REMARKS
LEXINGTON      CLOUDY    42  39  89 NW6       29.75R
COVINGTON      CLOUDY    41  38  89 N7        29.75R
FRANKFORT      LGT RAIN  43  39  86 N7        29.74R
$$

KYZ054-064>069-076>088-106>120-051200-
SOUTHEAST KENTUCKY

CITY           SKY/WX    TMP DP  RH WIND       PRES   REMARKS
JACKSON        LGT RAIN  42  40  92 CALM      29.73S VSB 1/4
LONDON         CLOUDY    43  40  89 CALM      29.74R
SOMERSET       LGT RAIN  43  41  93 W3        29.77R
MIDDLESBORO    PTCLDY    41  41 100 CALM      29.76R
MONTICELLO     LGT RAIN  45  43  93 W15       29.78S
$$




USA.gov is the U.S. government's official web portal to all federal, state and local government web resources and services.